Regional Weather Roundup
Issued by NWS

Home | Current Version | Previous Version | Graphics & Text | Print | Product List | Glossary On
Versions: 1 2 3 4 5 6 7 8 9 10 11 12 13 14 15 16 17 18 19 20 21 22 23 24 25 26 27 28 29 30 31 32 33 34 35 36 37 38 39 40 41 42 43 44 45 46 47 48 49 50
000
ASUS43 KLOT 221708
RWRIL

ILLINOIS REGIONAL WEATHER ROUNDUP
NATIONAL WEATHER SERVICE CHICAGO/ROMEOVILLE IL
1100 AM CST SUN JAN 22 2017

NOTE: "FAIR" INDICATES FEW OR NO CLOUDS BELOW 12,000 FEET WITH NO
SIGNIFICANT WEATHER AND/OR OBSTRUCTIONS TO VISIBILITY.

* THESE STATIONS ARE NOT UNDER NWS QUALITY CONTROL. THEY ALSO MAY NOT
  REPORT WEATHER SUCH AS PRECIPITATION OR FOG.

ILZ001-002-007-009-015-016-024-221800-
NORTHWEST ILLINOIS

CITY           SKY/WX    TMP DP  RH WIND       PRES   REMARKS
MOLINE         CLOUDY    39  36  89 CALM      29.67S FOG
STERLING*      CLOUDY    34  34 100 N3        29.68S
SAVANNA*       FOG       32  32 100 CALM      29.68S VSB 3/4
$$

ILZ003-004-008-010-011-017-018-221800-
NORTH CENTRAL ILLINOIS

CITY           SKY/WX    TMP DP  RH WIND       PRES   REMARKS
ROCKFORD       CLOUDY    38  36  92 NW5       29.68S FOG     WCI  34
FREEPORT*      FOG       32  32 100 CALM      29.69S VSB<1/4
ROCHELLE*      CLOUDY    33  33 100 N6        29.67S FOG     WCI  28
DE KALB*       FOG       36  36  99 N8        29.65F VSB 1/4 WCI  30
$$

ILZ005-006-012>014-019>023-221800-
NORTHEAST ILLINOIS

CITY           SKY/WX    TMP DP  RH WIND       PRES   REMARKS
CHICAGO-OHARE  CLOUDY    44  39  82 E5        29.64S
CHICAGO-MIDWAY CLOUDY    42  40  92 E8        29.64S FOG
AURORA         CLOUDY    38  36  92 NW6       29.65S WCI  33
LANSING*       CLOUDY    41  41 100 NE7       29.64F FOG
JOLIET*        CLOUDY    44  43  98 NE3       29.65S FOG
WAUKEGAN       CLOUDY    44  39  82 N5        29.64F
DUPAGE AIRPORT CLOUDY    40  38  93 N5        29.64S
KANKAKEE*      CLOUDY    41  40  97 N7        29.63F FOG
WHEELING       CLOUDY    45  39  79 NE5       29.65F
MORRIS*        CLOUDY    40  39  98 CALM      29.64F FOG
ROMEOVILLE*    CLOUDY    42  42 100 NE3       29.65R FOG
NORTHERLY ISL    N/A     39  38  96 N3          N/A
$$

LMZ740>746-221800-
SOUTHERN LAKE MICHIGAN

STATION/POSITION SKY/WX   TEMP    WIND        PRES    VSBY  WAVE
                          AIR SEA DIR/SP/G                  HT/PER
                          (F)     (DEG/KT/KT) (MB)    (MI)  (FT/S)
HARRISON CRIB              41      10/  6/  6   N/A
BURNHAM HARBOR             36      60/  3/  5   N/A
CALUMET HARBOR             38      20/  4/  6 1003.6F
BURNS HARBOR               35      60/  7/  8 1004.7F
MICHIGAN CITY              36      20/  8/  8   N/A
$$

ILZ025>027-034>036-040-047-049-050-058-095>099-221800-
WEST-CENTRAL ILLINOIS

CITY           SKY/WX    TMP DP  RH WIND       PRES   REMARKS
QUINCY         CLOUDY    44  40  85 N15       29.63S
GALESBURG*     CLOUDY    40  40 100 N6        29.66S FOG
MACOMB*        CLOUDY    42  42  98 N12       29.67F
JACKSONVILLE*  CLOUDY    44  42  95 N14G20    29.60R FOG
PITTSFIELD*    CLOUDY    47  42  85 N12       29.61S
$$

ILZ028>032-037-038-041>044-048-051>054-059>061-221800-
CENTRAL ILLINOIS

CITY           SKY/WX    TMP DP  RH WIND       PRES   REMARKS
PONTIAC        DRIZZLE   41  41 100 N10       29.63F
BLOOMINGTON    CLOUDY    43  43 100 N15       29.61F FOG
DECATUR        CLOUDY    47  45  93 NE12      29.56F
PEORIA         CLOUDY    44  40  85 NE9       29.64F
LACON*         CLOUDY    38  38 100 CALM      29.65S FOG
LINCOLN*       MOSUNNY   48  45  91 N13       29.60S
SPRINGFIELD    CLOUDY    47  43  86 N13       29.59S FOG
TAYLORVILLE    CLOUDY    44  43  97 N16       29.56F FOG
$$

ILZ033-039-045-046-055>057-062-063-221800-
EAST-CENTRAL ILLINOIS

CITY           SKY/WX    TMP DP  RH WIND       PRES   REMARKS
CHAMPAIGN      CLOUDY    49  44  83 N13       29.56F
RANTOUL*       CLOUDY    46  45  95 N12       29.58F FOG
MATTOON        MOSUNNY   53  51  93 NE10      29.53F
PARIS*         PTSUNNY   54  51  92 NE7       29.55F
$$

ILZ079-100>102-221800-
SOUTHWEST ILLINOIS

CITY           SKY/WX    TMP DP  RH WIND       PRES   REMARKS
ALTON          CLOUDY    48  45  87 N14       29.53F FOG
BELLEVILLE     PTSUNNY   53  51  91 N14       29.49F
CAHOKIA*       PTSUNNY   53  44  71 N14       29.51F
SPARTA*        CLOUDY    55  51  89 N8        29.49S
$$

ILZ064>066-069>071-074>076-080>082-084>086-088>090-092>094-221800-
SOUTH-CENTRAL ILLINOIS

CITY           SKY/WX    TMP DP  RH WIND       PRES   REMARKS
CARBONDALE     PTSUNNY   57  52  83 NE3       29.46F
CAIRO*         CLOUDY    57  53  86 NE7       29.43F
EFFINGHAM*     CLOUDY    55  53  94 NE5       29.53S
MARION         CLOUDY    57  57 100 N6        29.47F
MT. VERNON     CLOUDY    57  51  80 NE9       29.48F
CENTRALIA*     CLOUDY    56  52  86 NE7       29.49S
SALEM*         PTSUNNY   57  51  81 NE7       29.51R
METROPOLIS*    PTSUNNY   59  53  80 CALM      29.45F
$$

ILZ067-068-072-073-078-083-087-091-221800-
SOUTHEAST ILLINOIS

CITY           SKY/WX    TMP DP  RH WIND       PRES   REMARKS
LAWRENCEVILLE  CLOUDY    56  51  84 NE9       29.51F
FLORA*         CLOUDY    57  52  82 NE9       29.51S
FAIRFIELD*     CLOUDY    56  52  84 N5        29.47F
HARRISBURG*    CLOUDY    57  53  84 E7        29.47F
ROBINSON*      CLOUDY    55  50  86 NE9       29.53F
CARMI*         CLOUDY    56  51  83 NE10      29.47F
$$

ABBREVIATIONS USED IN REMARKS
   TC - TEMPERATURE IN CELSIUS
  WCI - WIND CHILL INDEX
   HX - HEAT INDEX
  VSB - VISIBILITY
$$





USA.gov is the U.S. government's official web portal to all federal, state and local government web resources and services.